[[{"header":{"parameterUnit":"m.s-1","parameterCategory":1,"la1":30.2991,"la2":30.254,"lo1":-89.0895,"lo2":-89.0444,"dy":0.0017,"dx":0.0017,"nx":28,"ny":28,"refTime":"2024-06-23T21:00:00:Z","depth":0,"parameterNumber":2,"parameterNumberName":"U-component_of_WINDS"},"data":[0,0,0,0,0,0,0,0,0,0,0,0,0,0,0,0,0,0,0,0,0,0,0,0,0,0,0,0,0,0,0,0,0,0,0,0,0,0,0,0,0,0,0,0,0,0,0,0,0,0,0,0,0,0,0,0,0,0,2.9983,2.9984,0,3.0042,3.0042,3.0043,3.0008,3.0006,3.0005,3.0003,3.0062,3.0065,3.0068,0,0,0,0,0,0,0,0,0,0,0,0,0,2.9838,2.9841,2.9983,2.9984,2.9985,3.0042,3.0043,3.0043,3.0008,3.0006,3.0004,3.0002,3.0061,3.0065,3.0068,0,0,0,0,0,0,0,0,0,0,0,0,0,2.9899,2.9842,2.9983,2.9974,2.9974,3.0042,3.0043,3.0044,3.0009,3.0006,3.0004,3.0001,3.006,3.0064,3.0069,3.0148,0,0,3.0083,3.0085,0,0,0,0,0,0,0,0,2.9896,2.9905,2.9975,2.9975,2.9975,3.0015,3.0013,3.0079,3.0009,2.9995,3.0003,3.0,3.0048,3.0054,3.007,3.0151,3.0154,3.0084,3.0086,3.0088,3.009,0,0,0,0,0,0,0,2.9892,2.9902,3.0006,2.9976,2.9976,2.9966,2.9972,3.0025,3.0035,2.9996,2.9994,3.0001,3.0048,3.0066,3.0071,3.0155,3.0083,3.0088,3.0091,3.0092,3.03,3.0303,0,0,0,0,0,0,2.9889,2.9899,3.0004,3.0008,2.9928,2.9971,2.9977,3.0005,3.0035,3.0037,3.0004,3.0,3.0059,3.0066,3.0073,3.0165,3.0088,3.0093,3.0096,3.0297,3.0301,3.0303,0,0,0,0,0,0,2.9886,2.9898,3.0002,2.9953,2.9965,2.9976,3.0007,3.0007,3.0025,3.004,3.0041,3.002,3.0057,3.0067,3.0129,3.0167,3.0095,3.0099,3.0294,3.0298,3.0302,3.0352,0,0,0,0,0,0,2.9882,2.9897,2.9929,2.9954,2.9968,3.0058,3.0009,3.001,3.0033,3.0029,3.0056,3.0058,3.0056,3.0122,3.0134,3.0172,3.0103,3.0291,3.0296,3.0301,3.0347,3.0358,3.0366,0,0,0,0,0,2.9877,2.9941,2.993,2.9943,3.0007,3.006,3.0068,3.0065,3.0037,3.0067,3.0076,3.0057,3.0162,3.0129,3.0142,3.0182,3.0288,3.0295,3.03,3.0343,3.0356,3.0366,0,0,0,0,0,0,2.992,2.9944,2.9933,3.0007,3.0032,3.0054,3.0093,3.0079,3.0112,3.0106,3.01,3.0107,3.0171,3.0183,3.0147,3.0259,3.022,3.0229,3.0248,3.0261,3.027,3.0264,3.0107,0,0,0,0,0,2.9938,2.998,2.9999,3.0063,3.0076,3.0082,3.0105,3.01,3.0126,3.0136,3.015,3.0174,3.0212,3.0238,3.0274,3.035,3.0353,3.0384,3.0393,3.0401,3.0408,3.0446,3.0458,3.0323,3.0323,3.0323,0,0,2.9976,2.9995,3.0021,3.0072,3.009,3.0132,3.0091,3.0138,3.0169,3.0143,3.0202,3.0213,3.024,3.0309,3.034,3.0321,3.0446,3.0409,3.0415,3.0417,3.0453,3.0466,3.0477,3.0327,3.0327,3.0326,0,0,3.0066,3.0086,3.014,3.0159,3.0187,3.0191,3.0204,3.0228,3.0234,3.0294,3.0274,3.031,3.0377,3.0396,3.0414,3.051,3.0492,3.0522,3.0571,3.0608,3.0619,3.0628,3.0659,3.0671,3.053,3.053,3.053,0,3.011,3.0173,3.0169,3.0217,3.0238,3.0217,3.027,3.0289,3.0328,3.0342,3.0321,3.0402,3.0419,3.049,3.0513,3.053,3.0543,3.0518,3.0618,3.0627,3.0635,3.0665,3.0677,3.0533,3.0532,3.0532,3.0532,0,3.0223,3.0267,3.0307,3.0344,3.0371,3.0421,3.0423,3.0451,3.0443,3.0449,3.0508,3.0528,3.0566,3.0583,3.0577,3.0653,3.064,3.0618,3.0579,3.0652,3.0679,3.069,3.0537,3.0536,3.0535,3.0535,0,0,3.0342,3.0375,3.039,3.0405,3.0434,3.0467,3.0516,3.0553,3.0575,3.0603,3.0641,3.0698,3.0677,3.0698,3.0694,3.0727,3.0797,3.0701,3.0701,3.0715,3.0878,3.0892,3.0905,3.0787,3.0789,3.0791,3.0875,0,3.0431,3.0516,3.0513,3.0591,3.063,3.061,3.0652,3.0673,3.068,3.0713,3.072,3.0758,3.073,3.0742,3.0774,3.0782,3.0829,3.0776,3.082,3.0822,3.0811,3.092,3.0936,3.1014,3.0886,3.0888,3.0889,0,3.0546,3.0576,3.0659,3.068,3.0696,3.0734,3.0766,3.0799,3.0822,3.0824,3.0847,3.0837,3.0884,3.0845,3.0909,3.0873,3.0891,3.0898,3.0901,3.0902,3.0858,3.0922,3.104,3.105,3.0907,3.0905,3.0904,0,3.062,3.0682,3.0738,3.0752,3.0779,3.0806,3.0818,3.0839,3.0861,3.0889,3.0903,3.0937,3.0955,3.0981,3.0979,3.0952,3.1043,3.1005,3.1044,3.1044,3.1062,3.1061,3.1181,3.1079,3.1079,3.1079,3.1078,0,3.0718,3.0769,3.0771,3.0805,3.086,3.0856,3.0911,3.092,3.0939,3.0973,3.0959,3.0992,3.0989,3.1022,3.1022,3.1072,3.1082,3.1083,3.1082,3.1083,3.1082,3.1092,3.1086,3.1082,3.1081,3.108,3.108,0,3.0809,3.0813,3.0873,3.0893,3.0899,3.0939,3.0955,3.0987,3.0992,3.1036,3.1046,3.1053,3.1091,3.1093,3.1136,3.1136,3.1197,3.1191,3.1189,3.1186,3.1224,3.1219,3.1354,3.137,3.126,3.1261,3.1262,0,3.087,3.0908,3.0932,3.0954,3.0968,3.1004,3.1026,3.1024,3.1047,3.1075,3.1103,3.1139,3.1167,3.1228,3.1237,3.1269,3.1262,3.1307,3.1267,3.1265,3.1259,3.1255,3.1258,3.1314,3.1315,3.1316,3.1317,0,3.0977,3.0977,3.1009,3.1041,3.1068,3.1093,3.1117,3.1136,3.1136,3.1162,3.12,3.1222,3.1266,3.1301,3.1332,3.1343,3.1329,3.133,3.134,3.134,3.1335,3.1335,3.1206,3.1326,3.1325,3.1324,3.1324,3.1323,3.1052,3.1084,3.1105,3.1141,3.1158,3.118,3.121,3.1218,3.125,3.1285,3.1282,3.1323,3.1344,3.1384,3.1399,3.143,3.1414,3.143,3.1433,3.1437,3.1439,3.1333,3.1436,3.1436,3.1436,3.1435,3.1435,0,3.1155,3.1168,3.1201,3.1234,3.1261,3.1247,3.1272,3.1295,3.1332,3.1352,3.138,3.1423,3.1456,3.1467,3.1499,3.1522,3.1516,3.153,3.1527,3.1529,3.1453,3.1439,3.1534,3.1534,3.1534,3.1534,3.1534,3.1534,3.1212,3.1263,3.1266,3.1325,3.1337,3.1377,3.1392,3.1412,3.1428,3.1476,3.1503,3.1511,3.1527,3.156,3.1589,3.1591,3.1602,3.1619,3.1618,3.1545,3.1535,3.1526,3.1513,3.1622,3.1622,3.1692,3.1692,3.1693]},{"header":{"parameterUnit":"m.s-1","parameterCategory":1,"la1":30.2991,"la2":30.254,"lo1":-89.0895,"lo2":-89.0444,"dy":0.0017,"dx":0.0017,"nx":28,"ny":28,"refTime":"2024-06-23T21:00:00:Z","depth":0,"parameterNumber":3,"parameterNumberName":"V-component_of_WINDS"},"data":[0,0,0,0,0,0,0,0,0,0,0,0,0,0,0,0,0,0,0,0,0,0,0,0,0,0,0,0,0,0,0,0,0,0,0,0,0,0,0,0,0,0,0,0,0,0,0,0,0,0,0,0,0,0,0,0,0,0,4.0496,4.0498,0,4.0669,4.0671,4.0673,4.0686,4.0684,4.0682,4.0681,4.085,4.0856,4.0863,0,0,0,0,0,0,0,0,0,0,0,0,0,4.017,4.0176,4.0496,4.0498,4.05,4.0668,4.0671,4.0673,4.0686,4.0684,4.0682,4.068,4.0848,4.0856,4.0863,0,0,0,0,0,0,0,0,0,0,0,0,0,4.0324,4.0178,4.0495,4.0527,4.0532,4.0668,4.0671,4.0674,4.0687,4.0684,4.0681,4.0679,4.0846,4.0855,4.0864,4.0978,0,0,4.0893,4.0897,0,0,0,0,0,0,0,0,4.0315,4.0336,4.052,4.0525,4.0531,4.0653,4.0618,4.0776,4.0688,4.0628,4.068,4.0677,4.0786,4.0801,4.0839,4.0986,4.0994,4.0894,4.0899,4.0903,4.0906,0,0,0,0,0,0,0,4.0304,4.0328,4.0564,4.0523,4.0529,4.053,4.0549,4.0648,4.072,4.0633,4.0634,4.0655,4.0789,4.083,4.0843,4.0996,4.0893,4.0902,4.0908,4.0911,4.1244,4.1247,0,0,0,0,0,0,4.0289,4.0319,4.0559,4.0569,4.0414,4.0539,4.056,4.0616,4.072,4.0733,4.0657,4.0655,4.0815,4.0832,4.0849,4.0989,4.0903,4.0912,4.0918,4.1241,4.1245,4.1248,0,0,0,0,0,0,4.0281,4.031,4.0552,4.0445,4.0476,4.0547,4.0611,4.0621,4.0663,4.0738,4.075,4.0686,4.0814,4.0836,4.0946,4.0995,4.0916,4.0925,4.1237,4.1242,4.1246,4.1269,0,0,0,0,0,0,4.0272,4.0307,4.0353,4.0446,4.0481,4.0648,4.0614,4.0627,4.068,4.0678,4.0769,4.0781,4.0813,4.0932,4.0956,4.1006,4.0932,4.1233,4.1239,4.1245,4.1265,4.1274,4.1283,0,0,0,0,0,4.026,4.0351,4.0355,4.0384,4.0541,4.0651,4.0671,4.0709,4.0684,4.0729,4.0777,4.0778,4.0986,4.0943,4.097,4.1024,4.123,4.1237,4.1244,4.1261,4.1273,4.1283,0,0,0,0,0,0,4.026,4.0364,4.037,4.0494,4.0564,4.0653,4.0712,4.072,4.0797,4.0792,4.0833,4.0853,4.0962,4.1004,4.0955,4.1139,4.1105,4.1118,4.1108,4.112,4.1129,4.1116,4.094,0,0,0,0,0,4.0275,4.0359,4.0444,4.0545,4.058,4.064,4.0689,4.0712,4.0785,4.0814,4.0871,4.0939,4.102,4.1072,4.1151,4.1271,4.1289,4.1321,4.133,4.1337,4.1347,4.1412,4.1427,4.1272,4.1272,4.1272,0,0,4.0306,4.0373,4.0423,4.0547,4.0604,4.0687,4.0665,4.0754,4.0815,4.0827,4.0936,4.0979,4.1058,4.1174,4.1227,4.1212,4.1394,4.1346,4.1351,4.1358,4.1421,4.1436,4.1449,4.1277,4.1276,4.1275,0,0,4.0404,4.0464,4.0555,4.0613,4.07,4.0739,4.0761,4.0849,4.0879,4.0989,4.1,4.1072,4.121,4.1266,4.1313,4.1432,4.1434,4.1456,4.1503,4.1566,4.1578,4.1589,4.1631,4.1645,4.1466,4.1466,4.1466,0,4.0431,4.0559,4.06,4.0689,4.0743,4.076,4.085,4.0903,4.101,4.1046,4.1028,4.1202,4.1256,4.1385,4.1414,4.1451,4.1475,4.1446,4.1574,4.1585,4.1596,4.1636,4.1651,4.1468,4.1468,4.1468,4.1467,0,4.0587,4.0675,4.0738,4.0844,4.0904,4.0993,4.1045,4.1101,4.1118,4.1158,4.1268,4.1335,4.1426,4.1458,4.1475,4.1589,4.1577,4.1566,4.1532,4.1612,4.165,4.1666,4.1471,4.147,4.147,4.1469,0,0,4.069,4.0818,4.084,4.0888,4.0985,4.1053,4.1142,4.1234,4.128,4.1353,4.1427,4.1544,4.1535,4.1587,4.161,4.1666,4.1755,4.1648,4.165,4.1665,4.1882,4.1889,4.1907,4.1757,4.176,4.1763,4.1875,0,4.0799,4.0961,4.1,4.1138,4.1219,4.1236,4.1313,4.1379,4.1419,4.1492,4.1534,4.1616,4.1598,4.163,4.1686,4.1732,4.1798,4.1724,4.1825,4.1828,4.1804,4.1927,4.1935,4.2038,4.189,4.1893,4.1895,0,4.0948,4.1027,4.1173,4.1259,4.1295,4.1364,4.1451,4.1521,4.1596,4.162,4.168,4.1697,4.1788,4.175,4.1874,4.1823,4.1866,4.1894,4.1899,4.1909,4.1866,4.1939,4.2072,4.2087,4.1919,4.1917,4.1915,0,4.1008,4.115,4.1256,4.1296,4.14,4.1448,4.1492,4.1565,4.1617,4.1692,4.1726,4.181,4.1856,4.1919,4.1957,4.1926,4.2078,4.2043,4.2099,4.2098,4.213,4.2128,4.2271,4.2159,4.2159,4.2158,4.2158,0,4.1125,4.1213,4.1284,4.1349,4.1448,4.1491,4.1587,4.1631,4.1695,4.1767,4.1786,4.1852,4.19,4.1972,4.2003,4.21,4.212,4.2141,4.2148,4.214,4.2137,4.2168,4.2162,4.2162,4.2161,4.2161,4.216,0,4.1208,4.126,4.1376,4.1465,4.1489,4.1558,4.1632,4.1695,4.1735,4.1826,4.1849,4.1911,4.1997,4.2043,4.2149,4.217,4.2279,4.2282,4.2255,4.2258,4.2311,4.2305,4.2478,4.2502,4.2375,4.2376,4.2377,0,4.1279,4.1348,4.1445,4.1496,4.1542,4.1624,4.1678,4.1721,4.1777,4.1867,4.1918,4.2006,4.2078,4.2215,4.2268,4.2349,4.2354,4.2409,4.2366,4.2355,4.2354,4.2349,4.2355,4.2416,4.2417,4.2418,4.2419,0,4.14,4.1422,4.1501,4.1589,4.1654,4.1724,4.1794,4.1834,4.1888,4.1949,4.2039,4.2095,4.2205,4.2291,4.2377,4.242,4.2428,4.2432,4.2449,4.2441,4.2422,4.2432,4.2275,4.2428,4.2427,4.2426,4.2426,4.2426,4.1479,4.1541,4.1619,4.1705,4.1763,4.1827,4.189,4.1939,4.2016,4.2111,4.2131,4.2225,4.2296,4.2413,4.2458,4.2531,4.2519,4.2544,4.2551,4.2556,4.2558,4.2411,4.2547,4.2546,4.2546,4.2546,4.2546,0,4.16,4.1651,4.1731,4.1828,4.1896,4.1901,4.1977,4.2033,4.2117,4.2184,4.2256,4.2358,4.2442,4.2501,4.2586,4.2632,4.2638,4.2653,4.265,4.2659,4.2564,4.2541,4.2647,4.2647,4.2647,4.2647,4.2647,4.2647,4.1671,4.1775,4.1806,4.1939,4.1988,4.2083,4.2127,4.2185,4.2239,4.2354,4.2424,4.2463,4.2527,4.2616,4.2692,4.2707,4.2737,4.2752,4.2767,4.2677,4.2666,4.2656,4.2634,4.2758,4.2758,4.2856,4.2857,4.2858]}]]